Location: Dompnac
(44.5644°N, 4.1026°E)
Time: 11:18:12
(UTC+00:00)

Cosmos 1891 Rocket - Pass Details

Date: 18 January 2021
Orbit: 934 x 1018 km, 82.9° (Epoch: 24 February)

Event Time Altitude Azimuth Distance (km) Brightness Sun altitude
Rises 03:43:17 0° 139° (SE) 3,676 7.9 -37.3°
Reaches altitude 10° 03:46:37 10° 122° (ESE) 2,717 7.3 -36.7°
Maximum altitude 03:50:37 18° 81° (E) 2,166 6.9 -36.0°
Drops below altitude 10° 03:54:36 10° 40° (NE) 2,692 7.3 -35.3°
Sets 03:57:51 0° 23° (NNE) 3,629 7.8 -34.7°
